Simultaneous Nadir Overpasses (SNOs) Predictions

Prediction of SNOs between GOES-14 and NPP Satellite Orbit:

Table of predicted SNOs for the next 14.0 days since TLE Epoch: 8/8/2025
Index Date Time (GOES-14) GOES-14 Lat,Lon NPP Lat,Lon Distance(km) Time Diff (sec)
1 08/09/2025 20:42:10 0.86,-107.99 0.63,-109.11 126.74 80
2 08/10/2025 20:26:05 0.85,-108.01 1.60,-104.56 391.85 80
3 08/12/2025 08:45:12 -0.87,-108.02 -0.44,-109.83 207.02 80
4 08/13/2025 08:29:07 -0.86,-108.03 -1.48,-105.30 311.05 80
5 08/14/2025 20:48:25 0.89,-108.04 0.34,-110.61 291.73 80
6 08/15/2025 20:32:19 0.88,-108.05 1.32,-106.07 226.41 80
7 08/17/2025 08:54:07 -0.90,-108.07 -0.17,-111.33 372.12 80
8 08/18/2025 08:35:22 -0.90,-108.07 -1.20,-106.80 145.27 80
9 08/19/2025 20:54:38 0.92,-108.07 0.01,-112.10 458.82 80
10 08/20/2025 20:38:34 0.92,-108.08 1.05,-107.57 59.18 80
